Helicity
263 376 510 488 435 430 423 365 326 373 245 290 313 322 345 378 401 369 341 288 207 125 118 101 100 103 78 80 83 78 76 80 87 85 76 90 102 101
408 428 442 407 417 445 414 485 421 184 275 260 242 233 247 281 316 279 240 170 105 117 99 96 101 69 68 62 58 60 72 85 90 93 99 103 116 104
343 349 357 361 348 337 426 419 287 308 343 211 228 269 269 299 233 180 135 155 146 102 91 91 77 73 70 51 48 66 70 78 86 85 87 84 90 73
272 283 300 323 315 252 258 273 293 289 220 210 263 256 210 169 167 159 133 119 117 97 91 89 75 71 65 56 63 61 69 67 57 57 57 57 58 63
238 243 231 233 239 210 235 179 224 227 190 228 247 186 165 140 136 118 124 125 126 83 72 77 85 87 78 72 59 52 48 42 45 50 51 56 51 49
287 265 238 193 144 171 209 213 187 194 189 164 161 143 128 119 123 143 151 141 140 121 122 107 89 74 60 57 40 33 31 39 53 62 64 59 55 52
299 248 211 181 153 157 142 125 152 151 144 117 100 88 95 110 148 164 167 158 139 117 117 105 100 84 73 42 41 39 55 75 78 75 70 61 42 34
182 190 144 168 154 158 145 135 114 97 94 100 122 127 160 202 199 207 201 137 82 60 84 52 83 82 87 92 42 49 60 65 66 62 51 42 34 36
121 143 161 139 87 82 81 82 96 109 130 154 155 181 177 182 156 99 52 39 41 71 78 91 108 96 98 84 40 38 45 44 42 50 48 49 41 42
47 30 26 45 79 87 89 107 134 140 149 166 159 128 104 53 33 44 51 56 65 76 84 119 99 90 90 96 60 24 26 45 51 43 37 42 52 54
29 72 83 101 128 124 132 145 134 156 133 86 70 23 -7 -13 6 32 58 65 70 75 94 99 104 94 83 102 72 12 57 81 67 60 51 57 69 59
76 93 117 123 120 133 132 142 146 142 124 82 38 16 11 24 28 59 63 71 78 85 103 128 144 93 75 149 122 132 101 62 38 44 47 50 55 126
87 97 104 122 127 117 119 124 139 103 75 47 30 31 35 44 59 70 80 98 85 113 125 116 168 139 178 198 167 151 106 98 97 92 60 41 48 64
84 93 113 116 104 110 116 121 98 82 63 51 49 46 53 55 64 74 70 78 91 100 90 119 215 175 193 179 166 122 111 107 90 86 89 52 27 4
88 91 72 82 95 103 119 110 92 70 56 56 56 58 51 55 56 58 64 81 84 102 109 131 186 185 223 247 232 154 93 99 98 93 72 75 72 85
86 87 90 93 101 108 109 93 73 59 60 59 61 61 60 58 65 66 63 66 68 71 87 101 135 187 214 235 264 241 191 182 163 156 138 144 147 154
69 79 93 106 118 120 114 90 71 62 64 64 59 59 63 61 66 68 66 70 81 74 68 92 124 158 222 240 245 215 184 195 197 148 138 151 125 135
80 93 109 118 123 118 102 89 77 63 55 55 56 55 56 59 59 65 67 71 76 75 82 87 100 133 161 210 181 227 172 137 124 99 65 54 66 88
88 111 123 126 116 101 90 75 65 52 48 54 54 55 53 55 46 68 65 77 86 78 87 91 101 122 125 139 176 149 129 101 90 118 103 99 89 90
121 128 128 116 100 86 68 64 59 54 51 55 55 59 63 71 73 76 81 84 97 99 105 88 101 119 143 52 58 194 147 125 153 158 131 101 101 69
136 136 120 101 83 68 68 60 51 51 55 64 68 71 74 84 87 81 78 46 50 90 96 88 93 53 122 133 172 194 184 170 163 132 144 117 86 82
139 132 107 86 72 69 60 60 52 51 63 65 71 82 88 91 94 87 97 95 100 117 117 108 110 139 150 153 93 107 115 179 152 114 100 93 88 116
139 125 100 79 68 66 57 63 63 73 76 79 87 92 93 96 109 119 115 108 125 134 140 113 127 141 158 172 102 106 83 148 159 125 148 100 94 106
Wind_Speed
66 62 61 60 57 55 52 60 59 77 66 57 49 42 47 49 53 57 62 70 67 75 76 79 77 78 82 83 82 83 85 85 84 84 85 84 84 85
57 55 55 55 53 49 52 55 51 52 58 53 48 48 50 56 54 62 68 66 66 67 72 76 76 79 81 85 83 83 82 83 81 82 84 84 85 85
54 52 51 47 47 48 45 48 48 48 57 56 57 54 55 59 60 63 61 63 64 65 70 70 74 77 80 81 80 79 81 81 80 81 82 82 82 83
50 47 45 43 42 40 44 46 48 50 56 60 58 57 59 55 55 58 60 58 62 67 70 72 75 76 77 79 80 78 78 79 80 82 83 84 85 87
38 37 36 35 40 40 43 41 47 49 49 52 54 47 48 51 57 54 55 59 64 66 68 70 72 74 76 78 79 80 81 82 83 84 85 86 87 86
28 28 30 31 33 36 42 43 45 46 49 49 50 53 51 49 50 58 63 58 66 66 69 72 72 70 72 75 77 80 80 81 81 80 77 77 77 78
25 28 29 29 32 36 38 40 40 42 45 47 48 48 52 55 57 55 63 66 68 69 65 61 63 67 69 70 73 74 72 70 71 73 74 74 76 75
25 27 31 34 36 37 39 41 39 41 43 47 51 56 57 56 54 60 63 67 70 50 57 63 59 65 64 63 67 68 69 69 71 72 75 73 71 70
31 33 36 35 35 37 38 39 41 45 45 43 50 51 54 52 51 55 55 52 54 51 55 61 59 64 60 63 67 68 67 68 72 68 67 66 70 68
33 33 34 35 38 42 44 45 46 40 41 43 45 46 46 45 40 41 41 44 45 47 48 62 61 62 63 63 64 64 65 67 67 67 72 74 72 69
36 39 42 42 45 44 44 43 43 44 42 40 41 40 36 35 34 38 40 42 48 54 54 57 57 64 71 64 54 53 58 64 61 63 73 75 73 71
42 43 43 44 44 46 45 46 48 46 44 42 39 34 32 30 29 28 34 40 48 58 49 54 57 67 68 55 52 61 57 53 57 63 68 67 68 63
44 45 44 46 47 46 45 43 43 42 42 38 36 35 34 31 31 33 34 40 45 46 46 53 53 62 59 64 62 64 58 58 57 58 57 59 56 48
47 46 46 50 48 44 40 39 40 41 38 38 39 37 37 38 38 41 41 41 40 42 46 44 45 51 58 64 76 72 67 65 58 55 53 52 46 23
48 47 48 46 43 40 38 41 40 37 38 38 39 39 39 42 45 43 41 40 42 44 43 36 34 36 43 46 58 69 73 69 61 53 52 49 29 23
49 48 47 44 41 41 41 39 37 38 40 40 41 42 45 49 47 46 47 49 53 56 50 46 38 31 37 43 44 39 49 53 58 59 36 34 29 22
51 46 45 44 44 42 42 41 41 41 41 40 42 44 51 53 49 48 47 50 50 60 65 58 47 36 33 37 40 40 40 40 33 26 26 31 37 31
48 45 47 46 46 47 47 47 46 45 42 42 44 50 53 54 51 49 48 49 54 59 64 64 60 50 43 37 33 39 37 29 31 32 29 28 32 36
44 45 46 46 46 46 48 47 46 44 43 43 48 52 54 52 53 51 49 50 53 63 65 63 62 56 46 35 59 50 34 28 26 30 28 30 31 36
42 44 45 45 46 47 47 46 45 42 42 48 52 54 53 50 50 47 46 48 53 60 68 67 61 56 46 42 61 48 40 23 25 31 33 32 31 29
43 43 42 43 45 46 46 46 42 40 42 49 53 52 49 44 41 41 43 46 54 66 75 74 64 53 42 38 36 35 47 37 30 30 36 31 31 37
42 41 40 42 44 43 42 40 38 37 39 48 49 45 39 34 32 33 35 37 44 55 67 72 70 57 49 42 41 43 37 46 49 38 32 26 25 38
41 39 39 39 38 37 34 32 31 31 36 42 41 36 32 33 33 32 30 33 34 39 53 80 74 57 52 40 37 40 44 35 53 49 41 34 23 29
Wind_Direction
277 277 278 282 283 284 285 291 290 294 293 297 305 306 305 306 307 308 306 306 308 304 306 307 308 307 306 306 306 305 303 302 303 302 301 301 300 299
280 279 281 283 285 286 290 295 296 294 299 302 309 311 308 305 311 307 306 308 307 309 308 308 308 307 307 305 305 304 304 303 304 303 302 301 300 299
281 281 282 284 286 292 296 298 302 304 301 304 308 311 309 309 312 311 311 310 310 311 310 311 310 310 308 307 306 306 304 304 304 303 302 301 301 300
284 282 282 285 287 292 299 299 303 306 305 303 307 308 310 314 315 316 315 317 314 313 313 313 311 310 309 308 307 306 306 305 303 302 301 301 300 299
289 286 286 287 292 296 304 304 309 311 313 311 311 318 320 318 317 319 319 319 317 316 316 315 314 313 311 309 308 306 305 304 303 302 301 301 300 300
303 300 298 299 300 305 307 309 312 311 313 313 315 317 320 322 322 321 320 323 320 321 319 317 316 315 314 312 310 308 306 305 305 305 305 304 303 303
310 311 311 313 313 314 314 315 319 318 317 317 318 320 321 322 322 327 323 323 322 321 321 324 324 322 319 316 314 312 312 312 311 309 307 306 304 303
313 320 322 320 320 320 319 320 320 321 320 319 320 319 323 326 328 327 328 327 327 338 335 330 330 327 325 323 320 318 317 316 314 311 307 307 307 307
316 321 321 327 329 327 330 328 326 322 324 328 324 326 327 331 334 332 333 335 334 337 337 333 334 329 329 326 323 321 321 318 315 314 312 311 308 309
333 336 344 342 337 329 326 325 328 334 333 332 332 332 334 337 342 344 343 341 341 341 342 334 337 333 333 330 328 325 323 320 319 317 311 309 310 311
354 345 337 338 335 337 336 337 335 335 338 337 337 338 341 344 346 346 345 346 343 342 344 341 344 337 331 333 338 336 331 325 325 322 314 312 314 313
346 347 349 346 342 339 338 337 334 337 340 341 344 350 352 353 353 352 348 344 342 342 354 350 349 341 337 342 342 335 334 335 330 324 320 320 318 318
352 349 349 347 345 343 342 341 340 342 342 345 348 351 353 356 355 351 348 342 339 338 343 347 350 343 338 336 337 335 336 336 333 330 328 326 325 324
353 353 352 347 346 348 349 350 347 345 346 345 345 347 348 347 345 341 341 340 339 335 338 342 344 344 338 334 328 331 334 335 335 335 334 332 331 309
355 353 351 351 352 353 354 349 349 350 346 344 344 344 344 342 337 338 341 342 341 340 340 338 336 339 340 335 333 332 333 335 336 337 338 336 332 325
357 355 353 354 354 353 352 353 352 348 344 342 341 341 339 335 336 338 338 340 339 339 343 344 342 339 337 335 333 323 335 336 336 334 335 333 331 325
354 355 355 354 353 352 351 349 349 346 344 342 340 338 333 331 335 336 337 338 339 338 338 343 345 343 336 332 330 330 332 333 331 319 320 326 335 336
356 355 353 352 351 349 347 346 345 344 343 341 338 332 331 333 335 335 336 337 337 338 337 339 341 344 344 341 331 331 335 325 330 332 330 325 326 337
356 354 352 351 350 349 346 345 344 344 343 339 333 331 331 335 335 335 336 337 337 336 337 339 339 343 342 325 346 343 330 301 298 328 329 330 323 329
355 353 351 351 350 348 347 345 345 345 343 336 331 331 334 336 337 338 337 337 337 337 335 337 339 341 341 297 290 337 340 297 322 327 328 327 321 307
353 351 351 350 349 348 347 345 346 346 343 335 332 334 339 341 341 341 339 337 335 333 329 331 336 339 334 329 327 322 342 339 331 321 329 321 321 330
352 350 350 349 349 350 350 350 350 350 347 338 338 341 345 346 342 340 339 338 338 337 333 331 333 338 340 338 296 292 296 339 341 333 322 306 308 334
351 349 348 348 350 352 354 353 353 351 348 343 344 346 347 345 344 341 335 334 331 333 337 327 331 338 337 332 310 296 289 321 339 340 337 333 295 264